Portada
METAR-TAF:

METAR-TAF

Aeropuertos :

Litchfield Municipal Airport

Litchfield, Illinois, Estados Unidos

latitud: 39-09-44N, longitud: 089-40-28W, altitud: 210 m

Observación

El informe se hizo hace 29 minutos, a las 07:55 UTC
Viento calma
Temperatura 21°C
Humedad 94%
Presión 1015 hPa
Visibilidad: 2.0 km
neblina

METAR: K3LF 060755Z AUTO 00000KT 1 1/4SM BR VV007 21/20 A2998 RMK AO2 VIS 1/2V4 T02050200 PNO

Hora: 03:24 (08:24 UTC)


TAF: falta

Observaciones y pronósticos meteorológicos de más de 4000 aeropuertos (mensajes METAR y TAF).

Los puntos amarillos y rojos representan las estaciones disponibles.

Ponga el ratón en el punto deseado para ver el nombre de la estación.

Haga clic para ver las observaciones y los pronósticos meteorológicos.

Para cambiar el mapa : haga clic en los botones verdes con una cruz de color negro para hacer un zoom, en el botón verde con un guión para alejar o en las flechas verdes para mapas adyacentes.


METAR-TAF: